^^
Saratoga-Weather Station Historical Data
Daily Summary for January 2, 2021 Units:  Metric    English   Both
Daily Weekly Monthly Yearly Custom
  High: Low: Average:
Temperature: 24.9 °C 10.8 °C 18.3 °C
Dew Point: 15.6 °C 9.6 °C 13 °C
Humidity: 93% 48% 73%
Wind Speed: 16.3km/h 0km/h 2.3km/h
Wind Gust: 17.7km/h - -
Wind- - West
Pressure: 1018.0 hPa 1015.9 hPa -
Precipitation: 0.0 mm    
Historical Graphs
 
 
Tabular Data for January 2, 2021
Time Temperature Dew Point Pressure Wind Wind Speed Wind Gust Humidity Rainfall Rate (Hourly) solar
00:04 14.2 °C 11.9 °C 1016.6 hPa WNW 1.4 km/h 3.2 km/h 86% 0.0 mm 0 W/m2
00:09 14.2 °C 11.9 °C 1016.6 hPa Calm   1.6 km/h 86% 0.0 mm 0 W/m2
00:14 14.3 °C 12 °C 1016.6 hPa WNW 1.4 km/h 3.2 km/h 86% 0.0 mm 0 W/m2
00:19 14.3 °C 12 °C 1016.6 hPa WNW 1.4 km/h 3.2 km/h 86% 0.0 mm 0 W/m2
00:24 14.3 °C 12 °C 1016.6 hPa WNW 3.2 km/h 4.8 km/h 86% 0.0 mm 0 W/m2
00:29 14.4 °C 12.1 °C 1016.6 hPa West 3.2 km/h 3.2 km/h 86% 0.0 mm 0 W/m2
00:34 14.4 °C 11.9 °C 1016.6 hPa West 1.4 km/h 3.2 km/h 85% 0.0 mm 0 W/m2
00:39 14.3 °C 11.8 °C 1016.6 hPa Calm   3.2 km/h 85% 0.0 mm 0 W/m2
00:44 14.3 °C 11.8 °C 1016.6 hPa Calm   3.2 km/h 85% 0.0 mm 0 W/m2
00:49 14.2 °C 11.9 °C 1016.6 hPa West 3.2 km/h 3.2 km/h 86% 0.0 mm 0 W/m2
00:54 14.2 °C 11.9 °C 1016.6 hPa West 1.4 km/h 3.2 km/h 86% 0.0 mm 0 W/m2
00:59 14.1 °C 11.8 °C 1016.6 hPa West 1.4 km/h 1.6 km/h 86% 0.0 mm 0 W/m2
01:04 14 °C 11.7 °C 1016.6 hPa West 1.4 km/h 3.2 km/h 86% 0.0 mm 0 W/m2
01:09 13.9 °C 11.8 °C 1016.6 hPa Calm     87% 0.0 mm 0 W/m2
01:14 13.9 °C 11.8 °C 1016.6 hPa Calm     87% 0.0 mm 0 W/m2
01:19 13.9 °C 11.8 °C 1016.6 hPa West 1.4 km/h 1.6 km/h 87% 0.0 mm 0 W/m2
01:24 13.9 °C 11.8 °C 1016.6 hPa West 1.4 km/h 3.2 km/h 87% 0.0 mm 0 W/m2
01:29 13.8 °C 11.7 °C 1016.6 hPa West 1.4 km/h 3.2 km/h 87% 0.0 mm 0 W/m2
01:34 13.8 °C 11.8 °C 1016.6 hPa West 3.2 km/h 3.2 km/h 88% 0.0 mm 0 W/m2
01:39 13.7 °C 11.7 °C 1016.6 hPa West 1.4 km/h 1.6 km/h 88% 0.0 mm 0 W/m2
01:44 13.7 °C 11.7 °C 1016.6 hPa West 1.4 km/h 1.6 km/h 88% 0.0 mm 0 W/m2
01:49 13.7 °C 11.7 °C 1016.6 hPa West 1.4 km/h 3.2 km/h 88% 0.0 mm 0 W/m2
01:54 13.6 °C 11.6 °C 1016.6 hPa West 1.4 km/h 3.2 km/h 88% 0.0 mm 0 W/m2
01:59 13.6 °C 11.6 °C 1016.6 hPa West 1.4 km/h 1.6 km/h 88% 0.0 mm 0 W/m2
02:04 13.6 °C 11.6 °C 1016.6 hPa Calm     88% 0.0 mm 0 W/m2
02:09 13.6 °C 11.6 °C 1016.9 hPa Calm   1.6 km/h 88% 0.0 mm 0 W/m2
02:14 13.5 °C 11.7 °C 1016.9 hPa West 3.2 km/h 3.2 km/h 89% 0.0 mm 0 W/m2
02:19 13.5 °C 11.6 °C 1016.9 hPa West 1.4 km/h 3.2 km/h 88% 0.0 mm 0 W/m2
02:24 13.5 °C 11.6 °C 1016.6 hPa West 4.7 km/h 4.8 km/h 88% 0.0 mm 0 W/m2
02:29 13.6 °C 11.6 °C 1016.6 hPa West 3.2 km/h 3.2 km/h 88% 0.0 mm 0 W/m2
02:34 13.7 °C 11.6 °C 1016.6 hPa West 1.4 km/h 3.2 km/h 87% 0.0 mm 0 W/m2
02:39 13.8 °C 11.7 °C 1016.6 hPa West 1.4 km/h 3.2 km/h 87% 0.0 mm 0 W/m2
02:44 13.8 °C 11.7 °C 1016.6 hPa West 3.2 km/h 4.8 km/h 87% 0.0 mm 0 W/m2
02:49 13.8 °C 11.5 °C 1016.6 hPa WSW 4.7 km/h 4.8 km/h 86% 0.0 mm 0 W/m2
02:54 13.9 °C 11.4 °C 1016.6 hPa West 1.4 km/h 3.2 km/h 85% 0.0 mm 0 W/m2
02:59 13.9 °C 11.4 °C 1016.6 hPa West 3.2 km/h 4.8 km/h 85% 0.0 mm 0 W/m2
03:04 13.8 °C 11.3 °C 1016.6 hPa West 3.2 km/h 4.8 km/h 85% 0.0 mm 0 W/m2
03:09 13.8 °C 11.3 °C 1016.6 hPa West 1.4 km/h 3.2 km/h 85% 0.0 mm 0 W/m2
03:14 13.7 °C 11.2 °C 1016.6 hPa Calm   1.6 km/h 85% 0.0 mm 0 W/m2
03:19 13.6 °C 11.1 °C 1016.6 hPa Calm     85% 0.0 mm 0 W/m2
03:24 13.5 °C 11 °C 1016.6 hPa Calm   1.6 km/h 85% 0.0 mm 0 W/m2
03:29 13.4 °C 11.1 °C 1016.6 hPa Calm     86% 0.0 mm 0 W/m2
03:34 13.3 °C 11 °C 1016.6 hPa Calm     86% 0.0 mm 0 W/m2
03:39 13.2 °C 10.9 °C 1016.6 hPa Calm     86% 0.0 mm 0 W/m2
03:44 13 °C 10.7 °C 1016.6 hPa Calm     86% 0.0 mm 0 W/m2
03:49 12.8 °C 10.5 °C 1016.6 hPa Calm     86% 0.0 mm 0 W/m2
03:54 12.7 °C 10.4 °C 1016.6 hPa Calm     86% 0.0 mm 0 W/m2
03:59 12.5 °C 10.4 °C 1016.6 hPa Calm     87% 0.0 mm 0 W/m2
04:04 12.4 °C 10.3 °C 1016.6 hPa Calm     87% 0.0 mm 0 W/m2
04:09 12.3 °C 10.2 °C 1016.6 hPa Calm     87% 0.0 mm 0 W/m2
04:14 12.2 °C 10.3 °C 1016.6 hPa Calm     88% 0.0 mm 0 W/m2
04:20 12.1 °C 10.2 °C 1016.6 hPa Calm     88% 0.0 mm 0 W/m2
04:25 12 °C 10.1 °C 1016.6 hPa Calm     88% 0.0 mm 0 W/m2
04:30 11.9 °C 10.1 °C 1016.6 hPa Calm     89% 0.0 mm 0 W/m2
04:35 11.9 °C 10.1 °C 1016.6 hPa Calm     89% 0.0 mm 0 W/m2
04:40 11.9 °C 10.3 °C 1016.6 hPa Calm     90% 0.0 mm 0 W/m2
04:45 11.8 °C 10.2 °C 1016.6 hPa Calm     90% 0.0 mm 0 W/m2
04:50 11.8 °C 10.2 °C 1016.6 hPa Calm     90% 0.0 mm 0 W/m2
04:55 11.8 °C 10.2 °C 1016.6 hPa Calm     90% 0.0 mm 0 W/m2
05:00 11.7 °C 10.3 °C 1016.6 hPa Calm     91% 0.0 mm 0 W/m2
05:05 11.7 °C 10.1 °C 1016.6 hPa Calm     90% 0.0 mm 0 W/m2
05:10 11.6 °C 10.2 °C 1016.6 hPa Calm     91% 0.0 mm 0 W/m2
05:15 11.6 °C 10.2 °C 1016.6 hPa Calm     91% 0.0 mm 0 W/m2
05:20 11.5 °C 10.1 °C 1016.6 hPa Calm     91% 0.0 mm 0 W/m2
05:25 11.4 °C 10 °C 1016.6 hPa Calm     91% 0.0 mm 0 W/m2
05:30 11.3 °C 9.9 °C 1016.6 hPa Calm     91% 0.0 mm 0 W/m2
05:35 11.2 °C 9.8 °C 1016.6 hPa Calm     91% 0.0 mm 0 W/m2
05:40 11.2 °C 9.8 °C 1016.6 hPa Calm     91% 0.0 mm 0 W/m2
05:45 11.1 °C 9.7 °C 1016.6 hPa Calm     91% 0.0 mm 5 W/m2
05:50 11.1 °C 9.7 °C 1016.6 hPa Calm     91% 0.0 mm 7 W/m2
05:55 11 °C 9.6 °C 1016.6 hPa Calm   1.6 km/h 91% 0.0 mm 14 W/m2
06:00 10.9 °C 9.7 °C 1016.6 hPa Calm     92% 0.0 mm 16 W/m2
06:05 10.9 °C 9.7 °C 1016.9 hPa Calm   1.6 km/h 92% 0.0 mm 21 W/m2
06:10 10.8 °C 9.6 °C 1016.9 hPa Calm     92% 0.0 mm 26 W/m2
06:15 10.8 °C 9.6 °C 1016.9 hPa Calm     92% 0.0 mm 23 W/m2
06:20 10.8 °C 9.6 °C 1016.9 hPa Calm     92% 0.0 mm 26 W/m2
06:25 10.8 °C 9.6 °C 1016.9 hPa Calm     92% 0.0 mm 39 W/m2
06:30 10.9 °C 9.8 °C 1016.9 hPa Calm     93% 0.0 mm 54 W/m2
06:35 10.9 °C 9.8 °C 1016.9 hPa Calm     93% 0.0 mm 62 W/m2
06:40 11.1 °C 10 °C 1016.9 hPa Calm     93% 0.0 mm 62 W/m2
06:45 11.2 °C 10.1 °C 1016.9 hPa Calm     93% 0.0 mm 62 W/m2
06:50 11.3 °C 10.2 °C 1016.9 hPa Calm     93% 0.0 mm 62 W/m2
06:55 11.4 °C 10.3 °C 1016.9 hPa West 1.4 km/h 3.2 km/h 93% 0.0 mm 69 W/m2
07:00 11.7 °C 10.6 °C 1016.9 hPa Calm   1.6 km/h 93% 0.0 mm 83 W/m2
07:05 11.9 °C 10.8 °C 1016.9 hPa Calm     93% 0.0 mm 98 W/m2
07:10 12.1 °C 11 °C 1016.9 hPa Calm   1.6 km/h 93% 0.0 mm 102 W/m2
07:15 12.3 °C 11 °C 1016.9 hPa Calm     92% 0.0 mm 109 W/m2
07:20 12.6 °C 11.3 °C 1016.9 hPa Calm     92% 0.0 mm 104 W/m2
07:25 12.8 °C 11.4 °C 1016.9 hPa Calm     91% 0.0 mm 76 W/m2
07:30 13 °C 11.6 °C 1016.9 hPa Calm     91% 0.0 mm 47 W/m2
07:35 13.2 °C 11.6 °C 1016.9 hPa Calm     90% 0.0 mm 30 W/m2
07:40 13.3 °C 11.5 °C 1016.9 hPa Calm     89% 0.0 mm 28 W/m2
07:45 13.4 °C 11.6 °C 1016.9 hPa Calm   1.6 km/h 89% 0.0 mm 93 W/m2
07:50 13.5 °C 11.6 °C 1016.9 hPa Calm     88% 0.0 mm 125 W/m2
07:55 13.6 °C 11.6 °C 1016.9 hPa Calm     88% 0.0 mm 97 W/m2
08:01 13.7 °C 11.7 °C 1016.9 hPa Calm     88% 0.0 mm 151 W/m2
08:06 13.9 °C 11.9 °C 1016.9 hPa Calm     88% 0.0 mm 169 W/m2
08:11 14.1 °C 12 °C 1016.9 hPa Calm     87% 0.0 mm 186 W/m2
08:16 14.2 °C 11.9 °C 1016.9 hPa Calm     86% 0.0 mm 195 W/m2
08:21 14.5 °C 12.2 °C 1016.9 hPa Calm     86% 0.0 mm 195 W/m2
08:26 14.7 °C 12.2 °C 1017.3 hPa Calm     85% 0.0 mm 213 W/m2
08:31 14.9 °C 12 °C 1017.3 hPa Calm     83% 0.0 mm 251 W/m2
08:36 15.2 °C 12.3 °C 1017.3 hPa ENE 1.4 km/h 3.2 km/h 83% 0.0 mm 285 W/m2
08:41 15.6 °C 12.5 °C 1017.3 hPa Calm     82% 0.0 mm 236 W/m2
08:46 15.8 °C 12.5 °C 1017.3 hPa Calm   1.6 km/h 81% 0.0 mm 248 W/m2
08:51 15.9 °C 12.5 °C 1017.3 hPa ENE 3.2 km/h 3.2 km/h 80% 0.0 mm 260 W/m2
08:56 16.1 °C 12.8 °C 1017.3 hPa Calm     81% 0.0 mm 250 W/m2
09:01 16.2 °C 12.9 °C 1017.3 hPa ENE 3.2 km/h 3.2 km/h 81% 0.0 mm 232 W/m2
09:06 16.3 °C 12.8 °C 1017.3 hPa NE 1.4 km/h 3.2 km/h 80% 0.0 mm 237 W/m2
09:11 16.4 °C 13.1 °C 1017.3 hPa ESE 1.4 km/h 4.8 km/h 81% 0.0 mm 251 W/m2
09:16 16.6 °C 13.1 °C 1017.3 hPa ENE 1.4 km/h 4.8 km/h 80% 0.0 mm 258 W/m2
09:21 16.7 °C 13 °C 1017.3 hPa NNE 3.2 km/h 3.2 km/h 79% 0.0 mm 313 W/m2
09:26 16.7 °C 13 °C 1017.3 hPa Calm   3.2 km/h 79% 0.0 mm 250 W/m2
09:31 16.8 °C 12.7 °C 1017.3 hPa West 3.2 km/h 6.4 km/h 77% 0.0 mm 248 W/m2
09:36 16.8 °C 12.7 °C 1017.3 hPa NE 1.4 km/h 11.3 km/h 77% 0.0 mm 250 W/m2
09:41 16.8 °C 12.7 °C 1017.6 hPa West 1.4 km/h 6.4 km/h 77% 0.0 mm 255 W/m2
09:46 16.9 °C 13 °C 1017.6 hPa NNE 1.4 km/h 11.3 km/h 78% 0.0 mm 264 W/m2
09:51 17.1 °C 13 °C 1017.6 hPa NNW 3.2 km/h 3.2 km/h 77% 0.0 mm 274 W/m2
09:56 17.2 °C 13.3 °C 1017.6 hPa Calm   4.8 km/h 78% 0.0 mm 301 W/m2
10:01 17.4 °C 13.3 °C 1017.6 hPa WSW 1.4 km/h 1.6 km/h 77% 0.0 mm 338 W/m2
10:06 17.6 °C 13.3 °C 1017.6 hPa WNW 4.7 km/h 6.4 km/h 76% 0.0 mm 350 W/m2
10:11 17.7 °C 13.2 °C 1017.6 hPa WNW 1.4 km/h 6.4 km/h 75% 0.0 mm 352 W/m2
10:16 17.8 °C 13.3 °C 1017.6 hPa WNW 3.2 km/h 4.8 km/h 75% 0.0 mm 339 W/m2
10:21 17.9 °C 13.4 °C 1018.0 hPa NW 4.7 km/h 6.4 km/h 75% 0.0 mm 336 W/m2
10:26 18.1 °C 13.6 °C 1018.0 hPa WNW 3.2 km/h 4.8 km/h 75% 0.0 mm 353 W/m2
10:31 18.2 °C 13.7 °C 1018.0 hPa WNW 6.4 km/h 6.4 km/h 75% 0.0 mm 359 W/m2
10:36 18.2 °C 13.5 °C 1018.0 hPa NNW 4.7 km/h 6.4 km/h 74% 0.0 mm 327 W/m2
10:41 18.1 °C 13.6 °C 1018.0 hPa Calm   9.7 km/h 75% 0.0 mm 339 W/m2
10:46 18.2 °C 13.9 °C 1018.0 hPa WNW 1.4 km/h 3.2 km/h 76% 0.0 mm 383 W/m2
10:51 18.4 °C 14.3 °C 1018.0 hPa Calm   8 km/h 77% 0.0 mm 436 W/m2
10:56 18.6 °C 14.3 °C 1018.0 hPa Calm   3.2 km/h 76% 0.0 mm 438 W/m2
11:01 19 °C 14.7 °C 1018.0 hPa SW 6.4 km/h 8 km/h 76% 0.0 mm 403 W/m2
11:06 19 °C 14 °C 1018.0 hPa WSW 3.2 km/h 14.5 km/h 73% 0.0 mm 466 W/m2
11:11 18.9 °C 14.2 °C 1018.0 hPa WNW 3.2 km/h 12.9 km/h 74% 0.0 mm 513 W/m2
11:16 18.9 °C 14.2 °C 1018.0 hPa West 3.2 km/h 14.5 km/h 74% 0.0 mm 482 W/m2
11:21 19 °C 14.5 °C 1018.0 hPa NNW 6.4 km/h 9.7 km/h 75% 0.0 mm 612 W/m2
11:26 19.2 °C 14.9 °C 1018.0 hPa NW 3.2 km/h 8 km/h 76% 0.0 mm 418 W/m2
11:31 19.5 °C 14.7 °C 1018.0 hPa SW 1.4 km/h 6.4 km/h 74% 0.0 mm 851 W/m2
11:36 20 °C 15.2 °C 1017.6 hPa NW 6.4 km/h 8 km/h 74% 0.0 mm 775 W/m2
11:41 20.4 °C 14.7 °C 1018.0 hPa NNE 6.4 km/h 12.9 km/h 70% 0.0 mm 861 W/m2
11:46 20.5 °C 14.6 °C 1018.0 hPa SW 4.7 km/h 8 km/h 69% 0.0 mm 248 W/m2
11:54 20.2 °C 14.1 °C 1017.6 hPa West 1.4 km/h 6.4 km/h 68% 0.0 mm 341 W/m2
12:03 20.5 °C 14.2 °C 1017.6 hPa West 6.4 km/h 17.7 km/h 67% 0.0 mm 339 W/m2
12:08 20.6 °C 14 °C 1017.6 hPa WSW 9.7 km/h 9.7 km/h 66% 0.0 mm 893 W/m2
12:13 20.7 °C 14.4 °C 1017.6 hPa WSW 6.4 km/h 17.7 km/h 67% 0.0 mm 919 W/m2
12:18 20.9 °C 14.3 °C 1017.6 hPa WNW 1.4 km/h 8 km/h 66% 0.0 mm 362 W/m2
12:23 20.9 °C 14.1 °C 1017.6 hPa South 3.2 km/h 12.9 km/h 65% 0.0 mm 271 W/m2
12:28 20.8 °C 14.2 °C 1017.6 hPa West 3.2 km/h 6.4 km/h 66% 0.0 mm 301 W/m2
12:33 21 °C 14.4 °C 1017.6 hPa SW 4.7 km/h 12.9 km/h 66% 0.0 mm 1011 W/m2
12:38 21.2 °C 14.1 °C 1017.6 hPa West 9.7 km/h 17.7 km/h 64% 0.0 mm 552 W/m2
12:43 21.3 °C 14.2 °C 1017.6 hPa NW 4.7 km/h 12.9 km/h 64% 0.0 mm 244 W/m2
12:48 21.2 °C 13.9 °C 1017.6 hPa WNW 3.2 km/h 6.4 km/h 63% 0.0 mm 193 W/m2
12:53 21.3 °C 14 °C 1017.6 hPa WNW 3.2 km/h 6.4 km/h 63% 0.0 mm 1004 W/m2
12:58 21.4 °C 14.1 °C 1017.6 hPa West 11.1 km/h 16.1 km/h 63% 0.0 mm 1102 W/m2
13:03 21.6 °C 13.2 °C 1017.3 hPa WNW 4.7 km/h 12.9 km/h 59% 0.0 mm 1099 W/m2
13:08 21.6 °C 13.8 °C 1017.3 hPa NNW 4.7 km/h 16.1 km/h 61% 0.0 mm 896 W/m2
13:13 21.8 °C 13.4 °C 1017.3 hPa West 4.7 km/h 11.3 km/h 59% 0.0 mm 972 W/m2
13:18 22.1 °C 14.2 °C 1017.3 hPa NNW 7.9 km/h 8 km/h 61% 0.0 mm 928 W/m2
13:23 22.2 °C 13.5 °C 1017.3 hPa Calm   9.7 km/h 58% 0.0 mm 930 W/m2
13:28 22.3 °C 13.6 °C 1016.9 hPa NW 7.9 km/h 14.5 km/h 58% 0.0 mm 919 W/m2
13:33 22.6 °C 14.4 °C 1017.3 hPa West 11.1 km/h 12.9 km/h 60% 0.0 mm 916 W/m2
13:38 22.6 °C 14.2 °C 1017.3 hPa WSW 7.9 km/h 14.5 km/h 59% 0.0 mm 932 W/m2
13:43 22.4 °C 13.7 °C 1016.9 hPa SSW 3.2 km/h 8 km/h 58% 0.0 mm 940 W/m2
13:48 22.6 °C 14.4 °C 1016.9 hPa WNW 4.7 km/h 14.5 km/h 60% 0.0 mm 969 W/m2
13:53 22.4 °C 14 °C 1016.9 hPa NW 1.4 km/h 6.4 km/h 59% 0.0 mm 1014 W/m2
13:58 22.6 °C 14.2 °C 1016.9 hPa NNW 9.7 km/h 14.5 km/h 59% 0.0 mm 1013 W/m2
14:04 22.8 °C 14.1 °C 1016.9 hPa West 13 km/h 12.9 km/h 58% 0.0 mm 1030 W/m2
14:09 23 °C 14.3 °C 1016.9 hPa West 4.7 km/h 8 km/h 58% 0.0 mm 1074 W/m2
14:14 23.3 °C 14.3 °C 1016.9 hPa West 4.7 km/h 11.3 km/h 57% 0.0 mm 1034 W/m2
14:19 23.3 °C 14.3 °C 1016.9 hPa WSW 1.4 km/h 9.7 km/h 57% 0.0 mm 1030 W/m2
14:24 23.1 °C 14.6 °C 1016.9 hPa West 4.7 km/h 9.7 km/h 59% 0.0 mm 248 W/m2
14:29 22.8 °C 14.6 °C 1016.9 hPa Calm   6.4 km/h 60% 0.0 mm 645 W/m2
14:34 22.9 °C 14.2 °C 1016.9 hPa WNW 4.7 km/h 11.3 km/h 58% 0.0 mm 264 W/m2
14:39 23.1 °C 14.4 °C 1016.9 hPa WNW 1.4 km/h 6.4 km/h 58% 0.0 mm 294 W/m2
14:44 23.4 °C 14.4 °C 1016.9 hPa NNW 1.4 km/h 11.3 km/h 57% 0.0 mm 1055 W/m2
14:49 23.5 °C 14.5 °C 1016.9 hPa Calm   4.8 km/h 57% 0.0 mm 281 W/m2
14:54 23.6 °C 14 °C 1016.9 hPa West 4.7 km/h 14.5 km/h 55% 0.0 mm 281 W/m2
14:59 23.5 °C 14.2 °C 1016.9 hPa NW 3.2 km/h 8 km/h 56% 0.0 mm 316 W/m2
15:04 23.2 °C 14.2 °C 1016.9 hPa WNW 3.2 km/h 14.5 km/h 57% 0.0 mm 308 W/m2
15:09 23.1 °C 14.4 °C 1016.9 hPa West 16.3 km/h 16.1 km/h 58% 0.0 mm 965 W/m2
15:14 23.1 °C 14.4 °C 1016.6 hPa WNW 3.2 km/h 6.4 km/h 58% 0.0 mm 642 W/m2
15:19 23.5 °C 14.8 °C 1016.6 hPa WNW 6.4 km/h 6.4 km/h 58% 0.0 mm 939 W/m2
15:24 23.7 °C 14.1 °C 1016.6 hPa West 4.7 km/h 11.3 km/h 55% 0.0 mm 970 W/m2
15:29 23.8 °C 13.6 °C 1016.6 hPa Calm   8 km/h 53% 0.0 mm 940 W/m2
15:34 24.2 °C 14.6 °C 1016.6 hPa WNW 4.7 km/h 11.3 km/h 55% 0.0 mm 898 W/m2
15:39 24.2 °C 14 °C 1016.6 hPa West 6.4 km/h 11.3 km/h 53% 0.0 mm 930 W/m2
15:44 24.2 °C 14.6 °C 1016.6 hPa West 3.2 km/h 6.4 km/h 55% 0.0 mm 930 W/m2
15:49 24.4 °C 14.5 °C 1016.6 hPa West 6.4 km/h 12.9 km/h 54% 0.0 mm 970 W/m2
15:54 24.3 °C 14.1 °C 1016.6 hPa WSW 7.9 km/h 8 km/h 53% 0.0 mm 1007 W/m2
15:59 24.2 °C 14 °C 1016.6 hPa NW 4.7 km/h 11.3 km/h 53% 0.0 mm 1051 W/m2
16:04 24.2 °C 14.9 °C 1016.6 hPa WNW 9.7 km/h 11.3 km/h 56% 0.0 mm 1004 W/m2
16:09 23.9 °C 13.7 °C 1016.6 hPa West 1.4 km/h 9.7 km/h 53% 0.0 mm 227 W/m2
16:14 23.6 °C 13.7 °C 1016.6 hPa NNW 6.4 km/h 9.7 km/h 54% 0.0 mm 195 W/m2
16:19 23.4 °C 14.1 °C 1016.6 hPa WNW 4.7 km/h 6.4 km/h 56% 0.0 mm 192 W/m2
16:24 23.3 °C 14.3 °C 1016.6 hPa NW 1.4 km/h 8 km/h 57% 0.0 mm 163 W/m2
16:29 23.2 °C 14.2 °C 1016.6 hPa WNW 3.2 km/h 6.4 km/h 57% 0.0 mm 155 W/m2
16:34 23.1 °C 14.4 °C 1016.6 hPa West 1.4 km/h 9.7 km/h 58% 0.0 mm 186 W/m2
16:39 23.1 °C 14.4 °C 1016.6 hPa West 4.7 km/h 8 km/h 58% 0.0 mm 250 W/m2
16:44 23.1 °C 14.4 °C 1016.6 hPa West 4.7 km/h 9.7 km/h 58% 0.0 mm 403 W/m2
16:49 23.4 °C 14.1 °C 1016.6 hPa WSW 11.1 km/h 11.3 km/h 56% 0.0 mm 940 W/m2
16:54 23.7 °C 14.1 °C 1016.6 hPa SSE 3.2 km/h 8 km/h 55% 0.0 mm 336 W/m2
16:59 23.9 °C 14.6 °C 1016.6 hPa WNW 3.2 km/h 8 km/h 56% 0.0 mm 285 W/m2
17:04 23.8 °C 14.2 °C 1016.6 hPa NW 1.4 km/h 9.7 km/h 55% 0.0 mm 306 W/m2
17:09 23.7 °C 14.7 °C 1016.6 hPa NW 4.7 km/h 6.4 km/h 57% 0.0 mm 325 W/m2
17:14 23.7 °C 14.1 °C 1016.6 hPa West 9.7 km/h 12.9 km/h 55% 0.0 mm 374 W/m2
17:19 23.8 °C 13.9 °C 1016.6 hPa North 4.7 km/h 12.9 km/h 54% 0.0 mm 336 W/m2
17:24 23.8 °C 13.9 °C 1016.3 hPa WSW 1.4 km/h 4.8 km/h 54% 0.0 mm 439 W/m2
17:29 23.9 °C 14 °C 1016.3 hPa Calm   4.8 km/h 54% 0.0 mm 533 W/m2
17:34 24.1 °C 14.5 °C 1016.3 hPa Calm   1.6 km/h 55% 0.0 mm 605 W/m2
17:39 24.3 °C 14.4 °C 1016.3 hPa SW 1.4 km/h 4.8 km/h 54% 0.0 mm 315 W/m2
17:44 24.3 °C 14.1 °C 1016.3 hPa WSW 3.2 km/h 8 km/h 53% 0.0 mm 258 W/m2
17:49 24.4 °C 13 °C 1016.3 hPa NW 7.9 km/h 12.9 km/h 49% 0.0 mm 443 W/m2
17:54 24.4 °C 13 °C 1016.3 hPa West 4.7 km/h 11.3 km/h 49% 0.0 mm 415 W/m2
17:59 24.5 °C 13.7 °C 1016.3 hPa WNW 4.7 km/h 12.9 km/h 51% 0.0 mm 610 W/m2
18:04 24.7 °C 13.3 °C 1016.3 hPa NW 3.2 km/h 6.4 km/h 49% 0.0 mm 492 W/m2
18:09 24.9 °C 13.1 °C 1016.3 hPa WSW 6.4 km/h 12.9 km/h 48% 0.0 mm 503 W/m2
18:14 24.8 °C 13.7 °C 1016.3 hPa West 6.4 km/h 11.3 km/h 50% 0.0 mm 510 W/m2
18:19 24.8 °C 14.3 °C 1016.3 hPa West 3.2 km/h 3.2 km/h 52% 0.0 mm 160 W/m2
18:24 24.7 °C 14.2 °C 1016.3 hPa West 4.7 km/h 6.4 km/h 52% 0.0 mm 257 W/m2
18:29 24.6 °C 14.1 °C 1016.3 hPa WNW 3.2 km/h 6.4 km/h 52% 0.0 mm 480 W/m2
18:34 24.7 °C 14.8 °C 1016.3 hPa WSW 4.7 km/h 6.4 km/h 54% 0.0 mm 329 W/m2
18:39 24.8 °C 14.3 °C 1015.9 hPa West 3.2 km/h 9.7 km/h 52% 0.0 mm 322 W/m2
18:44 24.8 °C 14.3 °C 1015.9 hPa WNW 6.4 km/h 6.4 km/h 52% 0.0 mm 434 W/m2
18:49 24.9 °C 14.4 °C 1016.3 hPa NW 3.2 km/h 6.4 km/h 52% 0.0 mm 374 W/m2
18:54 24.9 °C 13.5 °C 1016.3 hPa WSW 7.9 km/h 11.3 km/h 49% 0.0 mm 357 W/m2
18:59 24.9 °C 13.8 °C 1015.9 hPa WSW 3.2 km/h 6.4 km/h 50% 0.0 mm 237 W/m2
19:04 24.7 °C 13.6 °C 1015.9 hPa WSW 1.4 km/h 4.8 km/h 50% 0.0 mm 165 W/m2
19:09 24.6 °C 14.1 °C 1015.9 hPa West 4.7 km/h 6.4 km/h 52% 0.0 mm 91 W/m2
19:14 24.3 °C 13.8 °C 1015.9 hPa WNW 1.4 km/h 4.8 km/h 52% 0.0 mm 86 W/m2
19:19 24.1 °C 14.5 °C 1015.9 hPa WSW 4.7 km/h 4.8 km/h 55% 0.0 mm 95 W/m2
19:24 23.8 °C 13.9 °C 1015.9 hPa WSW 3.2 km/h 4.8 km/h 54% 0.0 mm 104 W/m2
19:29 23.5 °C 14.8 °C 1015.9 hPa WSW 1.4 km/h 3.2 km/h 58% 0.0 mm 113 W/m2
19:34 23.3 °C 14.6 °C 1015.9 hPa WSW 4.7 km/h 4.8 km/h 58% 0.0 mm 127 W/m2
19:39 23.2 °C 14.5 °C 1015.9 hPa West 1.4 km/h 3.2 km/h 58% 0.0 mm 183 W/m2
19:44 23.2 °C 14.7 °C 1015.9 hPa West 4.7 km/h 4.8 km/h 59% 0.0 mm 218 W/m2
19:49 23.4 °C 14.7 °C 1015.9 hPa West 3.2 km/h 3.2 km/h 58% 0.0 mm 237 W/m2
19:54 23.6 °C 14.9 °C 1015.9 hPa WNW 4.7 km/h 4.8 km/h 58% 0.0 mm 142 W/m2
19:59 23.7 °C 14.9 °C 1015.9 hPa WNW 3.2 km/h 6.4 km/h 58% 0.0 mm 209 W/m2
20:04 23.8 °C 15 °C 1015.9 hPa WNW 6.4 km/h 6.4 km/h 58% 0.0 mm 195 W/m2
20:09 23.8 °C 14.2 °C 1015.9 hPa West 3.2 km/h 8 km/h 55% 0.0 mm 179 W/m2
20:14 23.8 °C 14.8 °C 1015.9 hPa NW 3.2 km/h 4.8 km/h 57% 0.0 mm 128 W/m2
20:19 23.6 °C 14.9 °C 1015.9 hPa West 1.4 km/h 4.8 km/h 58% 0.0 mm 102 W/m2
20:24 23.4 °C 14.7 °C 1015.9 hPa WSW 1.4 km/h 3.2 km/h 58% 0.0 mm 121 W/m2
20:29 23.3 °C 14.8 °C 1016.3 hPa WNW 3.2 km/h 4.8 km/h 59% 0.0 mm 40 W/m2
20:34 23.1 °C 14.9 °C 1015.9 hPa West 1.4 km/h 4.8 km/h 60% 0.0 mm 83 W/m2
20:39 22.9 °C 15.5 °C 1015.9 hPa West 4.7 km/h 4.8 km/h 63% 0.0 mm 70 W/m2
20:44 22.9 °C 15.2 °C 1015.9 hPa WSW 3.2 km/h 3.2 km/h 62% 0.0 mm 67 W/m2
20:49 22.8 °C 15.4 °C 1015.9 hPa WSW 1.4 km/h 3.2 km/h 63% 0.0 mm 47 W/m2
20:54 22.8 °C 15.6 °C 1015.9 hPa Calm   1.6 km/h 64% 0.0 mm 53 W/m2
20:59 22.7 °C 15.5 °C 1015.9 hPa Calm   3.2 km/h 64% 0.0 mm 46 W/m2
21:04 22.6 °C 15.2 °C 1015.9 hPa WSW 1.4 km/h 4.8 km/h 63% 0.0 mm 30 W/m2
21:09 22.4 °C 15.3 °C 1015.9 hPa WSW 1.4 km/h 1.6 km/h 64% 0.0 mm 26 W/m2
21:14 22.2 °C 15.3 °C 1015.9 hPa WSW 1.4 km/h 3.2 km/h 65% 0.0 mm 18 W/m2
21:19 21.9 °C 14.8 °C 1015.9 hPa SW 6.4 km/h 6.4 km/h 64% 0.0 mm 16 W/m2
21:24 21.6 °C 14.5 °C 1015.9 hPa WSW 1.4 km/h 3.2 km/h 64% 0.0 mm 14 W/m2
21:29 21.4 °C 14.8 °C 1015.9 hPa Calm     66% 0.0 mm 12 W/m2
21:35 21.3 °C 14.7 °C 1015.9 hPa Calm   1.6 km/h 66% 0.0 mm 9 W/m2
21:40 21.1 °C 14.7 °C 1015.9 hPa Calm     67% 0.0 mm 7 W/m2
21:45 20.7 °C 14.6 °C 1015.9 hPa WSW 1.4 km/h 3.2 km/h 68% 0.0 mm 5 W/m2
21:50 20.3 °C 14.4 °C 1015.9 hPa Calm   3.2 km/h 69% 0.0 mm 0 W/m2
21:55 20.1 °C 14.5 °C 1015.9 hPa Calm   1.6 km/h 70% 0.0 mm 0 W/m2
22:00 19.8 °C 14.4 °C 1015.9 hPa Calm   3.2 km/h 71% 0.0 mm 0 W/m2
22:05 19.6 °C 14.4 °C 1015.9 hPa Calm   1.6 km/h 72% 0.0 mm 0 W/m2
22:10 19.4 °C 14.2 °C 1016.3 hPa Calm     72% 0.0 mm 0 W/m2
22:15 19.2 °C 14 °C 1016.3 hPa Calm   1.6 km/h 72% 0.0 mm 0 W/m2
22:20 18.9 °C 14 °C 1016.3 hPa Calm     73% 0.0 mm 0 W/m2
22:25 18.7 °C 14 °C 1016.3 hPa Calm     74% 0.0 mm 0 W/m2
22:30 18.6 °C 14.1 °C 1016.3 hPa Calm     75% 0.0 mm 0 W/m2
22:35 18.3 °C 14 °C 1016.3 hPa Calm     76% 0.0 mm 0 W/m2
22:40 18.2 °C 13.9 °C 1016.3 hPa Calm     76% 0.0 mm 0 W/m2
22:45 18 °C 13.9 °C 1016.3 hPa Calm     77% 0.0 mm 0 W/m2
22:50 17.9 °C 13.8 °C 1016.3 hPa Calm     77% 0.0 mm 0 W/m2
22:55 17.8 °C 13.9 °C 1016.3 hPa Calm     78% 0.0 mm 0 W/m2
23:00 17.7 °C 13.8 °C 1016.3 hPa Calm     78% 0.0 mm 0 W/m2
23:05 17.6 °C 13.9 °C 1016.3 hPa Calm     79% 0.0 mm 0 W/m2
23:10 17.5 °C 13.8 °C 1016.3 hPa Calm     79% 0.0 mm 0 W/m2
23:15 17.3 °C 13.8 °C 1016.3 hPa Calm     80% 0.0 mm 0 W/m2
23:20 17.3 °C 14 °C 1016.3 hPa Calm     81% 0.0 mm 0 W/m2
23:25 17.2 °C 13.9 °C 1016.3 hPa Calm     81% 0.0 mm 0 W/m2
23:30 17.2 °C 14.1 °C 1016.3 hPa Calm     82% 0.0 mm 0 W/m2
23:35 17.1 °C 14 °C 1016.3 hPa Calm     82% 0.0 mm 0 W/m2
23:40 16.9 °C 13.8 °C 1016.3 hPa Calm     82% 0.0 mm 0 W/m2
23:45 16.8 °C 13.9 °C 1016.3 hPa Calm     83% 0.0 mm 0 W/m2
23:50 16.7 °C 13.8 °C 1016.3 hPa Calm     83% 0.0 mm 0 W/m2
23:55 16.6 °C 13.7 °C 1015.9 hPa Calm     83% 0.0 mm 0 W/m2
Juneau County Weather
Compliments of Weather Underground - 4 mb